Der Flugplatz Bonn-Hangelar

Wo wir fliegen.

Wir fliegen auf dem Gelände des Flugplatz Bonn-Hangelar, betrieben von der Flugplatzgesellschaft Hangelar mbH. Dieses befindet sich in St. Augustin, wenige Minuten von Bonn entfernt. Eine Anfahrt können Sie hier sehen bzw. sich berechnen lassen.

Der Flugplatz selbst besitzt eine lange Geschichte. Seit über 100 Jahren wird hier geflogen.

Damit dies auch weiterhin gefahrlos erfolgen kann, wird sämtlicher Flugbetrieb stets gemäß den Vorgaben der Deutschen Flugsicherung (dfs) durchgeführt. Im Zweifel ist Rücksprache mit dem Tower zu halten!

Ebenso sind die Benutzungsordnungen Teil 1 und Teil 2 des Flugplatzes hier zu finden.

Wetter Informationen

An dieser Stelle möchten wir ein paar Wetterinformationen bereitstellen.

Hier dargestellten Werte erheben keinen Anspruch auf Vollständigkeit oder Aktualität und ersetzen keine Flugvorbereitung!

Köln/Bonn

MTAR

EDDK 282220Z VRB02KT 9999 MIFG NSC 16/15 Q0995 NOSIG

(hier klicken für Details)

TAF

TAF TAF EDDK 281700Z 2818/2924 31006KT 9999 SCT040 BECMG 2818/2820 14004KT BECMG 2905/2907 23005KT TEMPO 2910/2916 24010KT TEMPO 2912/2921 SHRA BKN030CB BECMG 2919/2922 17005KT

(hier klicken für Details)

Windkarte für Europa

Die Wetterkarten werden mit freundlicher Unterstützung von Top-Meteo bereitgestellt.

Bodenkarte für Europa